This is the latest recevied weather packets stored in our database for station/object CA3SQH-10. If no packets are shown the sender has not sent any weather packets the latest 10 day(s).
| Time | Temp. | Humidity | Pressure | Rain* | Wind** | Luminosity | Snow |
|---|---|---|---|---|---|---|---|
| 1777055022 | 23.89° C | 33% | 942.1 hPa | - | - | - | - |
| 1777054122 | 22.78° C | 34% | 942.3 hPa | - | - | - | - |
| 1777053222 | 23.33° C | 35% | 942.4 hPa | - | - | - | - |
| 1777052321 | 22.78° C | 39% | 942.5 hPa | - | - | - | - |
| 1777051421 | 22.22° C | 39% | 942.6 hPa | - | - | - | - |
| 1777050521 | 22.22° C | 40% | 942.8 hPa | - | - | - | - |
| 1777049621 | 22.22° C | 40% | 942.9 hPa | - | - | - | - |
| 1777048721 | 21.67° C | 39% | 943.1 hPa | - | - | - | - |
| 1777047820 | 21.11° C | 41% | 943.2 hPa | - | - | - | - |
| 1777046920 | 20.56° C | 42% | 943.3 hPa | - | - | - | - |
| 1777046020 | 20° C | 44% | 943.4 hPa | - | - | - | - |
| 1777045120 | 20° C | 45% | 943.4 hPa | - | - | - | - |
| 1777044219 | 19.44° C | 44% | 943.5 hPa | - | - | - | - |
| 1777043319 | 19.44° C | 45% | 943.5 hPa | - | - | - | - |
| 1777042419 | 18.89° C | 45% | 943.4 hPa | - | - | - | - |
| 1777041519 | 18.33° C | 47% | 943.3 hPa | - | - | - | - |
| 1777040619 | 17.78° C | 49% | 943.4 hPa | - | - | - | - |
| 1777039719 | 17.22° C | 49% | 943.4 hPa | - | - | - | - |
| 1777038818 | 16.67° C | 46% | 943.4 hPa | - | - | - | - |
| 1777037918 | 15.56° C | 46% | 943.3 hPa | - | - | - | - |
| 1777037023 | 15° C | 48% | 943.2 hPa | - | - | - | - |
| 1777036123 | 14.44° C | 50% | 943.1 hPa | - | - | - | - |
| 1777035223 | 13.89° C | 49% | 943.1 hPa | - | - | - | - |
| 1777034322 | 13.33° C | 52% | 943.1 hPa | - | - | - | - |
* Rain since midnight (hover to see other rain measurements)
** Current wind speed in m/s (hover to see current wind gust speed)